Retour au catalogue

STARLINK-37336

ActifCommunicationsVLEO
NORAD 100031·PAYLOAD·🇺🇸 United States

Lancé Jul 14, 2026 depuis Cape Canaveral Space Force Station

Loading…

Prochains Passages (prochaines 24 heures)

TLE

FraisSource: Space-Track

Époque: Sep 14, 2026, 14:56 UTC

1 A0031U 26161D   26257.62240316  .00017210  00000-0  51928-3 0  9995
2 A0031  53.1613  25.5178 0001512  91.4453 268.6723 15.34401703  9706

Suivez STARLINK-37336 en temps réel avec AllMySat

Download on the App Store